,,Stat5,,Stat1,,Stat2,,Stat3,,Stat4,,Wind1,,Wind1,
time,status,PA1M_AVG,status,PR1M_SUM,status,RH1M_AVG,status,SR1M_AVG,status,TA1M_AVG,status,W1dAve1m,status,W1sAve1m,
2002-04-22, 00:00:01,VALID,916.85,VALID,0,VALID,99.4217,VALID,-0.0849042,VALID,20.4764,VALID,20,VALID,0.593544,
2002-04-22, 00:01:00,VALID,916.823,VALID,0,VALID,99.4217,VALID,-0.0679233,VALID,20.4799,VALID,22,VALID,0.619196,
2002-04-22, 00:02:00,VALID,916.799,VALID,0,VALID,99.4268,VALID,-0.0509425,VALID,20.4565,VALID,24,VALID,0.362459,
2002-04-22, 00:03:00,VALID,916.771,VALID,0,VALID,99.428,VALID,-0.0339617,VALID,20.4468,VALID,25,VALID,0.263455,
2002-04-22, 00:04:00,VALID,916.749,VALID,0,VALID,99.4357,VALID,-0.101885,VALID,20.4309,VALID,13,VALID,0.444079,
2002-04-22, 00:05:00,VALID,916.732,VALID,0,VALID,99.4369,VALID,-0.101885,VALID,20.3986,VALID,354,VALID,0.697443,
2002-04-22, 00:06:00,VALID,916.727,VALID,0,VALID,99.442,VALID,-0.0849042,VALID,20.3787,VALID,6,VALID,0.42272,
2002-04-22, 00:07:00,VALID,916.703,VALID,0,VALID,99.4268,VALID,-0.0509425,VALID,20.405,VALID,20,VALID,0.577908,
2002-04-22, 00:08:00,VALID,916.714,VALID,0,VALID,99.4255,VALID,0,VALID,20.4194,VALID,13,VALID,0.427998,
2002-04-22, 00:09:00,VALID,916.722,VALID,0,VALID,99.4204,VALID,0,VALID,20.4266,VALID,355,VALID,0.448518,
2002-04-22, 00:10:00,VALID,916.735,VALID,0,VALID,99.428,VALID,0.0169808,VALID,20.4202,VALID,340,VALID,0.465061,
2002-04-22, 00:11:00,VALID,916.733,VALID,0,VALID,99.4179,VALID,0.0169808,VALID,20.4237,VALID,3,VALID,0.600296,
2002-04-22, 00:12:00,VALID,916.7,VALID,0,VALID,99.4229,VALID,0.0169808,VALID,20.4331,VALID,23,VALID,0.809821,
2002-04-22, 00:13:00,VALID,916.7,VALID,0,VALID,99.4191,VALID,0,VALID,20.4463,VALID,23,VALID,0.877757,
2002-04-22, 00:14:00,VALID,916.685,VALID,0,VALID,99.4166,VALID,0.0169808,VALID,20.456,VALID,354,VALID,0.90984,
2002-04-22, 00:15:00,VALID,916.69,VALID,0,VALID,99.4268,VALID,0.0169808,VALID,20.4326,VALID,359,VALID,0.683929,
2002-04-22, 00:16:00,VALID,916.702,VALID,0,VALID,99.4191,VALID,0,VALID,20.4388,VALID,15,VALID,0.775446,
2002-04-22, 00:17:00,VALID,916.721,VALID,0,VALID,99.4229,VALID,0,VALID,20.4425,VALID,8,VALID,0.704603,
2002-04-22, 00:18:00,VALID,916.737,VALID,0,VALID,99.4293,VALID,0.0169808,VALID,20.449,VALID,20,VALID,0.775735,
2002-04-22, 00:19:00,VALID,916.741,VALID,0,VALID,99.4153,VALID,0.0339617,VALID,20.4686,VALID,357,VALID,0.5956,
2002-04-22, 00:20:00,VALID,916.736,VALID,0,VALID,99.4344,VALID,0.0679233,VALID,20.4525,VALID,357,VALID,0.908637,
2002-04-22, 00:21:00,VALID,916.74,VALID,0,VALID,99.4229,VALID,0,VALID,20.449,VALID,9,VALID,0.601563,
2002-04-22, 00:22:00,VALID,916.72,VALID,0,VALID,99.4306,VALID,0,VALID,20.4624,VALID,2,VALID,0.808699,
2002-04-22, 00:23:00,VALID,916.702,VALID,0,VALID,99.4217,VALID,0,VALID,20.4452,VALID,19,VALID,0.816866,
2002-04-22, 00:24:00,VALID,916.699,VALID,0,VALID,99.4242,VALID,0,VALID,20.4293,VALID,14,VALID,1.17537,
2002-04-22, 00:25:00,VALID,916.682,VALID,0,VALID,99.4306,VALID,0.0169808,VALID,20.4455,VALID,21,VALID,0.784288,
2002-04-22, 00:26:00,VALID,916.666,VALID,0,VALID,99.428,VALID,0.0169808,VALID,20.4721,VALID,27,VALID,0.957465,
2002-04-22, 00:27:00,VALID,916.655,VALID,0,VALID,99.4318,VALID,0.0339617,VALID,20.442,VALID,26,VALID,1.32918,
2002-04-22, 00:28:00,VALID,916.633,VALID,0,VALID,99.4344,VALID,0,VALID,20.4522,VALID,17,VALID,1.16958,
2002-04-22, 00:29:00,VALID,916.623,VALID,0,VALID,99.4369,VALID,0.0169808,VALID,20.4393,VALID,33,VALID,0.965049,
2002-04-22, 00:30:00,VALID,916.61,VALID,0,VALID,99.4344,VALID,0,VALID,20.4425,VALID,29,VALID,0.849175,
2002-04-22, 00:31:00,VALID,916.59,VALID,0,VALID,99.4268,VALID,0,VALID,20.4554,VALID,35,VALID,0.85178,
2002-04-22, 00:32:00,VALID,916.572,VALID,0,VALID,99.4293,VALID,0.0169808,VALID,20.4818,VALID,36,VALID,0.614443,
2002-04-22, 00:33:00,VALID,916.539,VALID,0,VALID,99.4293,VALID,0,VALID,20.4912,VALID,45,VALID,0.963695,
2002-04-22, 00:34:00,VALID,916.523,VALID,0,VALID,99.4229,VALID,0.0339617,VALID,20.5009,VALID,46,VALID,0.859786,
2002-04-22, 00:35:00,VALID,916.502,VALID,0,VALID,99.4255,VALID,0.0169808,VALID,20.4907,VALID,55,VALID,0.828993,
2002-04-22, 00:36:00,VALID,916.499,VALID,0,VALID,99.4166,VALID,0.0169808,VALID,20.4945,VALID,43,VALID,0.688368,
2002-04-22, 00:37:00,VALID,916.509,VALID,0,VALID,99.4204,VALID,0.0169808,VALID,20.494,VALID,53,VALID,0.319468,
2002-04-22, 00:38:00,VALID,916.52,VALID,0,VALID,99.4268,VALID,0.0339617,VALID,20.4945,VALID,46,VALID,0.389246,
2002-04-22, 00:39:00,VALID,916.532,VALID,0,VALID,99.4204,VALID,0,VALID,20.4945,VALID,46,VALID,0.057977,
2002-04-22, 00:40:00,VALID,916.526,VALID,0,VALID,99.428,VALID,0,VALID,20.5039,VALID,46,VALID,0,
2002-04-22, 00:41:00,VALID,916.508,VALID,0,VALID,99.4166,VALID,0,VALID,20.527,VALID,46,VALID,0.0332031,
2002-04-22, 00:42:00,VALID,916.5,VALID,0,VALID,99.4242,VALID,0.0679233,VALID,20.5263,VALID,46,VALID,0.0388514,
2002-04-22, 00:43:00,VALID,916.476,VALID,0,VALID,99.4293,VALID,0,VALID,20.5238,VALID,46,VALID,0,
2002-04-22, 00:44:00,VALID,916.436,VALID,0,VALID,99.4306,VALID,0,VALID,20.5069,VALID,46,VALID,0,
2002-04-22, 00:45:00,VALID,916.418,VALID,0,VALID,99.4191,VALID,0.0169808,VALID,20.4934,VALID,46,VALID,0,
2002-04-22, 00:46:00,VALID,916.374,VALID,0,VALID,99.4204,VALID,0,VALID,20.4947,VALID,46,VALID,0,
2002-04-22, 00:47:00,VALID,916.344,VALID,0,VALID,99.4268,VALID,0.0339617,VALID,20.484,VALID,46,VALID,0,
2002-04-22, 00:48:00,VALID,916.32,VALID,0,VALID,99.4242,VALID,0.0339617,VALID,20.4972,VALID,46,VALID,0.0886949,
2002-04-22, 00:49:00,VALID,916.286,VALID,0,VALID,99.4395,VALID,0.0169808,VALID,20.4878,VALID,46,VALID,0.41139,
2002-04-22, 00:50:00,VALID,916.277,VALID,0,VALID,99.4306,VALID,0.0509425,VALID,20.4907,VALID,42,VALID,0.518663,
2002-04-22, 00:51:00,VALID,916.283,VALID,0,VALID,99.4344,VALID,0.0169808,VALID,20.5238,VALID,35,VALID,0.517144,
2002-04-22, 00:52:00,VALID,916.291,VALID,0,VALID,99.4268,VALID,0,VALID,20.5238,VALID,35,VALID,0.582559,
2002-04-22, 00:53:00,VALID,916.296,VALID,0,VALID,99.4357,VALID,-0.0849042,VALID,20.4925,VALID,35,VALID,0.620175,
2002-04-22, 00:54:00,VALID,916.315,VALID,0,VALID,99.4369,VALID,-0.0339617,VALID,20.4694,VALID,40,VALID,0.505757,
2002-04-22, 00:55:00,VALID,916.315,VALID,0,VALID,99.4369,VALID,-0.101885,VALID,20.4505,VALID,59,VALID,0.882161,
2002-04-22, 00:56:00,VALID,916.313,VALID,0,VALID,99.4344,VALID,-0.0339617,VALID,20.4408,VALID,53,VALID,0.81684,
2002-04-22, 00:57:00,VALID,916.309,VALID,0,VALID,99.4293,VALID,-0.0849042,VALID,20.4282,VALID,40,VALID,0.763091,
2002-04-22, 00:58:00,VALID,916.308,VALID,0,VALID,99.442,VALID,-0.0339617,VALID,20.4252,VALID,44,VALID,0.755515,
2002-04-22, 00:59:00,VALID,916.298,VALID,0,VALID,99.442,VALID,-0.0679233,VALID,20.4021,VALID,43,VALID,0.650905,
2002-04-22, 01:00:00,VALID,916.277,VALID,0,VALID,99.4458,VALID,-0.0679233,VALID,20.3856,VALID,50,VALID,0.824653,
2002-04-22, 01:01:00,VALID,916.252,VALID,0,VALID,99.4369,VALID,-0.0849042,VALID,20.3931,VALID,52,VALID,0.928385,
2002-04-22, 01:02:00,VALID,916.226,VALID,0,VALID,99.4408,VALID,-0.0679233,VALID,20.3797,VALID,62,VALID,1.19658,
2002-04-22, 01:03:00,VALID,916.195,VALID,0,VALID,99.4433,VALID,-0.101885,VALID,20.3638,VALID,57,VALID,1.03676,
2002-04-22, 01:04:00,VALID,916.157,VALID,0,VALID,99.4433,VALID,-0.0679233,VALID,20.3573,VALID,42,VALID,0.858347,
2002-04-22, 01:05:00,VALID,916.138,VALID,0,VALID,99.4535,VALID,-0.0849042,VALID,20.3412,VALID,54,VALID,0.957899,
2002-04-22, 01:06:00,VALID,916.109,VALID,0,VALID,99.456,VALID,-0.101885,VALID,20.3312,VALID,59,VALID,0.528863,
2002-04-22, 01:07:00,VALID,916.095,VALID,0,VALID,99.4535,VALID,-0.0849042,VALID,20.3188,VALID,88,VALID,0.411106,
2002-04-22, 01:08:00,VALID,916.081,VALID,0,VALID,99.4522,VALID,-0.0849042,VALID,20.2726,VALID,106,VALID,0.450368,
2002-04-22, 01:09:00,VALID,916.054,VALID,0,VALID,99.4547,VALID,-0.0849042,VALID,20.2375,VALID,84,VALID,0.436472,
2002-04-22, 01:10:00,VALID,916.059,VALID,0,VALID,99.4624,VALID,-0.0679233,VALID,20.2246,VALID,91,VALID,0.495226,
2002-04-22, 01:11:00,VALID,916.034,VALID,0,VALID,99.4624,VALID,-0.0849042,VALID,20.195,VALID,117,VALID,0.302083,
2002-04-22, 01:12:00,VALID,916.026,VALID,0,VALID,99.456,VALID,-0.101885,VALID,20.2154,VALID,141,VALID,0.612965,
2002-04-22, 01:13:00,VALID,916.028,VALID,0,VALID,99.4573,VALID,-0.0849042,VALID,20.2181,VALID,158,VALID,0.717601,
2002-04-22, 01:14:00,VALID,916.019,VALID,0,VALID,99.4573,VALID,-0.101885,VALID,20.2209,VALID,152,VALID,0.863898,
2002-04-22, 01:15:00,VALID,916.02,VALID,0,VALID,99.4624,VALID,-0.0509425,VALID,20.2276,VALID,141,VALID,0.696832,
2002-04-22, 01:16:00,VALID,916.025,VALID,0,VALID,99.4662,VALID,-0.101885,VALID,20.2281,VALID,138,VALID,0.338108,
2002-04-22, 01:17:00,VALID,916.033,VALID,0,VALID,99.4598,VALID,-0.0679233,VALID,20.2373,VALID,138,VALID,0.232052,
2002-04-22, 01:18:00,VALID,916.055,VALID,0,VALID,99.4547,VALID,-0.101885,VALID,20.244,VALID,145,VALID,0.227941,
2002-04-22, 01:19:00,VALID,916.051,VALID,0,VALID,99.4585,VALID,-0.0339617,VALID,20.2534,VALID,145,VALID,0.0832648,
2002-04-22, 01:20:00,VALID,916.074,VALID,0,VALID,99.4624,VALID,-0.0849042,VALID,20.2599,VALID,150,VALID,0.265408,
2002-04-22, 01:21:00,VALID,916.073,VALID,0,VALID,99.4611,VALID,-0.0849042,VALID,20.2768,VALID,150,VALID,0.223741,
2002-04-22, 01:22:00,VALID,916.069,VALID,0,VALID,99.4687,VALID,-0.0509425,VALID,20.2601,VALID,150,VALID,0.00232264,
2002-04-22, 01:23:00,VALID,916.07,VALID,0,VALID,99.4649,VALID,0.0169808,VALID,20.2683,VALID,150,VALID,0,
2002-04-22, 01:24:00,VALID,916.047,VALID,0,VALID,99.47,VALID,0.0339617,VALID,20.2715,VALID,191,VALID,0.094778,
2002-04-22, 01:25:00,VALID,916.035,VALID,0,VALID,99.4713,VALID,0.0169808,VALID,20.2621,VALID,233,VALID,0.399089,
2002-04-22, 01:26:00,VALID,916.029,VALID,0,VALID,99.4649,VALID,0.0509425,VALID,20.239,VALID,229,VALID,0.326606,
2002-04-22, 01:27:00,VALID,915.984,VALID,0,VALID,99.4751,VALID,0,VALID,20.2524,VALID,229,VALID,0.163429,
2002-04-22, 01:28:00,VALID,915.945,VALID,0,VALID,99.4751,VALID,0.0339617,VALID,20.2459,VALID,229,VALID,0.206112,
2002-04-22, 01:29:00,VALID,915.914,VALID,0,VALID,99.47,VALID,0.0509425,VALID,20.2392,VALID,230,VALID,0.276521,
2002-04-22, 01:30:00,VALID,915.883,VALID,0,VALID,99.4636,VALID,0,VALID,20.23,VALID,230,VALID,0.16059,
2002-04-22, 01:31:00,VALID,915.857,VALID,0,VALID,99.47,VALID,0,VALID,20.233,VALID,230,VALID,0.134766,
2002-04-22, 01:32:00,VALID,915.844,VALID,0,VALID,99.4725,VALID,0.0169808,VALID,20.2589,VALID,230,VALID,0.00337838,
2002-04-22, 01:33:00,VALID,915.843,VALID,0,VALID,99.4764,VALID,-0.0339617,VALID,20.285,VALID,230,VALID,0,
2002-04-22, 01:34:00,VALID,915.837,VALID,0,VALID,99.4725,VALID,-0.0169808,VALID,20.2952,VALID,230,VALID,0,
2002-04-22, 01:35:00,VALID,915.835,VALID,0,VALID,99.4687,VALID,0,VALID,20.3049,VALID,200,VALID,0.162543,
2002-04-22, 01:36:00,VALID,915.811,VALID,0,VALID,99.4585,VALID,-0.0169808,VALID,20.2785,VALID,168,VALID,0.281684,
2002-04-22, 01:37:00,VALID,915.796,VALID,0,VALID,99.4687,VALID,0,VALID,20.2691,VALID,168,VALID,0.0652449,
2002-04-22, 01:38:00,VALID,915.774,VALID,0,VALID,99.4687,VALID,-0.0169808,VALID,20.2524,VALID,168,VALID,0.295726,
2002-04-22, 01:39:00,VALID,915.765,VALID,0,VALID,99.47,VALID,0,VALID,20.2303,VALID,168,VALID,0.415502,
2002-04-22, 01:40:00,VALID,915.754,VALID,0,VALID,99.4713,VALID,0,VALID,20.2039,VALID,168,VALID,0.369792,
2002-04-22, 01:41:00,VALID,915.736,VALID,0,VALID,99.4738,VALID,-0.0169808,VALID,20.198,VALID,167,VALID,0.219401,
2002-04-22, 01:42:00,VALID,915.73,VALID,0,VALID,99.4802,VALID,0.0339617,VALID,20.1781,VALID,162,VALID,0.187922,
2002-04-22, 01:43:00,VALID,915.701,VALID,0,VALID,99.484,VALID,0,VALID,20.1721,VALID,147,VALID,0.056296,
2002-04-22, 01:44:00,VALID,915.692,VALID,0,VALID,99.4865,VALID,0.0169808,VALID,20.1714,VALID,135,VALID,0.0760691,
2002-04-22, 01:45:00,VALID,915.678,VALID,0,VALID,99.4814,VALID,0,VALID,20.1908,VALID,64,VALID,0.271484,
2002-04-22, 01:46:00,VALID,915.66,VALID,0,VALID,99.4776,VALID,0,VALID,20.2072,VALID,35,VALID,0.45638,
2002-04-22, 01:47:00,VALID,915.655,VALID,0,VALID,99.4802,VALID,0.0169808,VALID,20.2171,VALID,27,VALID,0.434122,
2002-04-22, 01:48:00,VALID,915.641,VALID,0,VALID,99.4764,VALID,0.0169808,VALID,20.2139,VALID,26,VALID,0.307215,
2002-04-22, 01:49:00,VALID,915.632,VALID,0,VALID,99.4738,VALID,0,VALID,20.2104,VALID,29,VALID,0.339227,
2002-04-22, 01:50:00,VALID,915.601,VALID,0,VALID,99.4776,VALID,0.0169808,VALID,20.1816,VALID,40,VALID,0.263455,
2002-04-22, 01:51:00,VALID,915.592,VALID,0,VALID,99.4789,VALID,0,VALID,20.1523,VALID,42,VALID,0.201389,
2002-04-22, 01:52:00,VALID,915.577,VALID,0,VALID,99.4916,VALID,-0.0169808,VALID,20.1423,VALID,42,VALID,0.0565878,
2002-04-22, 01:53:00,VALID,915.57,VALID,0,VALID,99.4903,VALID,-0.0509425,VALID,20.1075,VALID,55,VALID,0.0962776,
2002-04-22, 01:54:00,VALID,915.549,VALID,0,VALID,99.4942,VALID,-0.0679233,VALID,20.0653,VALID,126,VALID,0.46176,
2002-04-22, 01:55:00,VALID,915.542,VALID,0,VALID,99.4916,VALID,-0.0679233,VALID,20.0598,VALID,131,VALID,0.517144,
2002-04-22, 01:56:00,VALID,915.543,VALID,0,VALID,99.4929,VALID,-0.0849042,VALID,20.03,VALID,104,VALID,0.847439,
2002-04-22, 01:57:00,VALID,915.545,VALID,0,VALID,99.5005,VALID,-0.0849042,VALID,20.0109,VALID,95,VALID,0.908995,
2002-04-22, 01:58:00,VALID,915.545,VALID,0,VALID,99.5132,VALID,-0.0679233,VALID,19.9979,VALID,92,VALID,0.971507,
2002-04-22, 01:59:00,VALID,915.54,VALID,0,VALID,99.5145,VALID,-0.0849042,VALID,20.0081,VALID,91,VALID,0.789474,
2002-04-22, 02:00:00,VALID,915.531,VALID,0,VALID,99.5005,VALID,-0.0679233,VALID,20.0041,VALID,87,VALID,0.461155,
2002-04-22, 02:01:00,VALID,915.518,VALID,0,VALID,99.5056,VALID,-0.0339617,VALID,20.0114,VALID,93,VALID,0.203776,
2002-04-22, 02:02:00,VALID,915.514,VALID,0,VALID,99.5094,VALID,-0.0849042,VALID,20.0114,VALID,97,VALID,0.0646115,
2002-04-22, 02:03:00,VALID,915.497,VALID,0,VALID,99.5031,VALID,-0.0849042,VALID,20.0176,VALID,68,VALID,0.290441,
2002-04-22, 02:04:00,VALID,915.462,VALID,0,VALID,99.5056,VALID,-0.0679233,VALID,20.0469,VALID,40,VALID,0.423725,
2002-04-22, 02:05:00,VALID,915.45,VALID,0,VALID,99.5056,VALID,-0.0509425,VALID,20.0335,VALID,36,VALID,0.465712,
2002-04-22, 02:06:00,VALID,915.457,VALID,0,VALID,99.5031,VALID,-0.0849042,VALID,20.0273,VALID,47,VALID,0.540148,
2002-04-22, 02:07:00,VALID,915.446,VALID,0,VALID,99.5005,VALID,-0.0679233,VALID,20.034,VALID,49,VALID,0.61022,
2002-04-22, 02:08:00,VALID,915.447,VALID,0,VALID,99.5043,VALID,0.0169808,VALID,20.0126,VALID,51,VALID,0.451746,
2002-04-22, 02:09:00,VALID,915.455,VALID,0,VALID,99.5018,VALID,0,VALID,20.0093,VALID,53,VALID,0.422903,
2002-04-22, 02:10:00,VALID,915.459,VALID,0,VALID,99.5043,VALID,0.0849042,VALID,19.987,VALID,58,VALID,0.41276,
2002-04-22, 02:11:00,VALID,915.451,VALID,0,VALID,99.517,VALID,0.0169808,VALID,19.984,VALID,72,VALID,0.357639,
2002-04-22, 02:12:00,VALID,915.431,VALID,0,VALID,99.5107,VALID,0,VALID,19.9711,VALID,76,VALID,0.464738,
2002-04-22, 02:13:00,VALID,915.401,VALID,0,VALID,99.5132,VALID,0.0169808,VALID,19.9713,VALID,84,VALID,0.671415,
2002-04-22, 02:14:00,VALID,915.375,VALID,0,VALID,99.5094,VALID,0.0509425,VALID,19.978,VALID,70,VALID,0.328947,
2002-04-22, 02:15:00,VALID,915.349,VALID,0,VALID,99.5031,VALID,0.0509425,VALID,19.9838,VALID,67,VALID,0,
2002-04-22, 02:16:00,VALID,915.341,VALID,0,VALID,99.5183,VALID,0.0169808,VALID,19.9838,VALID,86,VALID,0.225694,
2002-04-22, 02:17:00,VALID,915.343,VALID,0,VALID,99.5145,VALID,0.0169808,VALID,19.9929,VALID,142,VALID,0.165752,
2002-04-22, 02:18:00,VALID,915.34,VALID,0,VALID,99.5183,VALID,0.0339617,VALID,20.0263,VALID,149,VALID,0.174173,
2002-04-22, 02:19:00,VALID,915.347,VALID,0,VALID,99.5183,VALID,0.0339617,VALID,20.0287,VALID,147,VALID,0.0127467,
2002-04-22, 02:20:00,VALID,915.358,VALID,0,VALID,99.5145,VALID,0.0679233,VALID,20.0645,VALID,147,VALID,0,
2002-04-22, 02:21:00,VALID,915.374,VALID,0,VALID,99.5158,VALID,0.0169808,VALID,20.0777,VALID,147,VALID,0,
2002-04-22, 02:22:00,VALID,915.365,VALID,0,VALID,99.5081,VALID,0.0339617,VALID,20.0802,VALID,147,VALID,0,
2002-04-22, 02:23:00,VALID,915.358,VALID,0,VALID,99.5132,VALID,0,VALID,20.0904,VALID,147,VALID,0,
2002-04-22, 02:24:00,VALID,915.322,VALID,0,VALID,99.5081,VALID,0,VALID,20.0938,VALID,147,VALID,0,
2002-04-22, 02:25:00,VALID,915.304,VALID,0,VALID,99.5094,VALID,0,VALID,20.0876,VALID,147,VALID,0,
2002-04-22, 02:26:00,VALID,915.269,VALID,0,VALID,99.5081,VALID,0.0509425,VALID,20.1065,VALID,147,VALID,0,
2002-04-22, 02:27:00,VALID,915.24,VALID,0,VALID,99.5043,VALID,0.0339617,VALID,20.0966,VALID,147,VALID,0.00401182,
2002-04-22, 02:28:00,VALID,915.213,VALID,0,VALID,99.5094,VALID,0.0679233,VALID,20.0936,VALID,147,VALID,0.188879,
2002-04-22, 02:29:00,VALID,915.19,VALID,0,VALID,99.5081,VALID,0.0509425,VALID,20.0901,VALID,147,VALID,0.0715461,
2002-04-22, 02:30:00,VALID,915.183,VALID,0,VALID,99.5005,VALID,0.0679233,VALID,20.0998,VALID,147,VALID,0,
2002-04-22, 02:31:00,VALID,915.178,VALID,0,VALID,99.512,VALID,0.0509425,VALID,20.1097,VALID,147,VALID,0,
2002-04-22, 02:32:00,VALID,915.17,VALID,0,VALID,99.5209,VALID,0.0679233,VALID,20.1192,VALID,147,VALID,0,
2002-04-22, 02:33:00,VALID,915.185,VALID,0,VALID,99.5056,VALID,0.0679233,VALID,20.1388,VALID,147,VALID,0,
2002-04-22, 02:34:00,VALID,915.18,VALID,0,VALID,99.5094,VALID,0.0339617,VALID,20.1421,VALID,147,VALID,0,
2002-04-22, 02:35:00,VALID,915.17,VALID,0,VALID,99.5056,VALID,0.0169808,VALID,20.1619,VALID,147,VALID,0,
2002-04-22, 02:36:00,VALID,915.149,VALID,0,VALID,99.512,VALID,0,VALID,20.1741,VALID,147,VALID,0,
2002-04-22, 02:37:00,VALID,915.132,VALID,0,VALID,99.5145,VALID,-0.0339617,VALID,20.1423,VALID,147,VALID,0,
2002-04-22, 02:38:00,VALID,915.105,VALID,0,VALID,99.5081,VALID,-0.0849042,VALID,20.1471,VALID,147,VALID,0,
2002-04-22, 02:39:00,VALID,915.083,VALID,0,VALID,99.5094,VALID,-0.0679233,VALID,20.1535,VALID,147,VALID,0,
2002-04-22, 02:40:00,VALID,915.076,VALID,0,VALID,99.5183,VALID,-0.0339617,VALID,20.1272,VALID,147,VALID,0,
2002-04-22, 02:41:00,VALID,915.064,VALID,0,VALID,99.5183,VALID,-0.0679233,VALID,20.1371,VALID,147,VALID,0,
2002-04-22, 02:42:00,VALID,915.057,VALID,0,VALID,99.5234,VALID,-0.0849042,VALID,20.1247,VALID,153,VALID,0,
2002-04-22, 02:43:00,VALID,915.046,VALID,0,VALID,99.5209,VALID,-0.0849042,VALID,20.1242,VALID,153,VALID,0,
2002-04-22, 02:44:00,VALID,915.033,VALID,0,VALID,99.5221,VALID,-0.0849042,VALID,20.104,VALID,153,VALID,0,
2002-04-22, 02:45:00,VALID,915.011,VALID,0,VALID,99.5132,VALID,-0.0509425,VALID,20.1244,VALID,153,VALID,0,
2002-04-22, 02:46:00,VALID,914.993,VALID,0,VALID,99.5158,VALID,-0.0679233,VALID,20.1108,VALID,153,VALID,0,
2002-04-22, 02:47:00,VALID,914.967,VALID,0,VALID,99.5221,VALID,-0.0509425,VALID,20.108,VALID,153,VALID,0,
2002-04-22, 02:48:00,VALID,914.944,VALID,0,VALID,99.5221,VALID,-0.0169808,VALID,20.111,VALID,153,VALID,0,
2002-04-22, 02:49:00,VALID,914.922,VALID,0,VALID,99.5209,VALID,-0.0679233,VALID,20.1279,VALID,153,VALID,0,
2002-04-22, 02:50:00,VALID,914.897,VALID,0,VALID,99.5259,VALID,-0.0679233,VALID,20.1145,VALID,153,VALID,0,
2002-04-22, 02:51:00,VALID,914.889,VALID,0,VALID,99.5348,VALID,-0.0849042,VALID,20.1212,VALID,153,VALID,0,
2002-04-22, 02:52:00,VALID,914.872,VALID,0,VALID,99.5158,VALID,-0.0679233,VALID,20.111,VALID,153,VALID,0,
2002-04-22, 02:53:00,VALID,914.837,VALID,0,VALID,99.5234,VALID,-0.0509425,VALID,20.1215,VALID,153,VALID,0,
2002-04-22, 02:54:00,VALID,914.814,VALID,0,VALID,99.5158,VALID,-0.0679233,VALID,20.1078,VALID,153,VALID,0,
2002-04-22, 02:55:00,VALID,914.782,VALID,0,VALID,99.5234,VALID,-0.101885,VALID,20.1202,VALID,153,VALID,0,
2002-04-22, 02:56:00,VALID,914.753,VALID,0,VALID,99.5209,VALID,-0.0849042,VALID,20.1336,VALID,153,VALID,0,
2002-04-22, 02:57:00,VALID,914.734,VALID,0,VALID,99.5272,VALID,-0.101885,VALID,20.1344,VALID,153,VALID,0,
2002-04-22, 02:58:00,VALID,914.717,VALID,0,VALID,99.5221,VALID,-0.0509425,VALID,20.1334,VALID,153,VALID,0,
2002-04-22, 02:59:00,VALID,914.711,VALID,0,VALID,99.5221,VALID,-0.0849042,VALID,20.154,VALID,153,VALID,0,
2002-04-22, 03:00:00,VALID,914.695,VALID,0,VALID,99.5196,VALID,-0.0509425,VALID,20.153,VALID,91,VALID,0.105252,
2002-04-22, 03:01:00,VALID,914.702,VALID,0,VALID,99.5209,VALID,-0.0679233,VALID,20.1463,VALID,32,VALID,0.419705,
2002-04-22, 03:02:00,VALID,914.698,VALID,0,VALID,99.5209,VALID,-0.0679233,VALID,20.1177,VALID,31,VALID,0.418497,
2002-04-22, 03:03:00,VALID,914.685,VALID,0,VALID,99.5234,VALID,-0.101885,VALID,20.1011,VALID,30,VALID,0.438419,
2002-04-22, 03:04:00,VALID,914.682,VALID,0,VALID,99.5247,VALID,-0.0849042,VALID,20.0981,VALID,23,VALID,0.50185,
2002-04-22, 03:05:00,VALID,914.655,VALID,0,VALID,99.5272,VALID,-0.0679233,VALID,20.0983,VALID,21,VALID,0.549913,
2002-04-22, 03:06:00,VALID,914.641,VALID,0,VALID,99.5247,VALID,-0.0679233,VALID,20.1185,VALID,17,VALID,0.625,
2002-04-22, 03:07:00,VALID,914.616,VALID,0,VALID,99.5196,VALID,-0.0679233,VALID,20.1142,VALID,17,VALID,0.481841,
2002-04-22, 03:08:00,VALID,914.602,VALID,0,VALID,99.5196,VALID,0.0339617,VALID,20.1063,VALID,16,VALID,0.859605,
2002-04-22, 03:09:00,VALID,914.577,VALID,0,VALID,99.5285,VALID,0.0509425,VALID,20.1065,VALID,20,VALID,1.09252,
2002-04-22, 03:10:00,VALID,914.563,VALID,0,VALID,99.5298,VALID,0.0169808,VALID,20.1162,VALID,22,VALID,1.21636,
2002-04-22, 03:11:00,VALID,914.546,VALID,0,VALID,99.5259,VALID,0.0169808,VALID,20.1125,VALID,12,VALID,1.0931,
2002-04-22, 03:12:00,VALID,914.524,VALID,0,VALID,99.5259,VALID,0.0339617,VALID,20.1259,VALID,16,VALID,0.938767,
2002-04-22, 03:13:00,VALID,914.516,VALID,0,VALID,99.5323,VALID,0.0679233,VALID,20.1137,VALID,5,VALID,0.931296,
2002-04-22, 03:14:00,VALID,914.513,VALID,0,VALID,99.5247,VALID,0,VALID,20.1194,VALID,3,VALID,0.662623,
2002-04-22, 03:15:00,VALID,914.5,VALID,0,VALID,99.5336,VALID,0.0169808,VALID,20.1455,VALID,24,VALID,0.691189,
2002-04-22, 03:16:00,VALID,914.498,VALID,0,VALID,99.5285,VALID,0,VALID,20.1296,VALID,20,VALID,0.733073,
2002-04-22, 03:17:00,VALID,914.494,VALID,0,VALID,99.5234,VALID,0,VALID,20.1455,VALID,20,VALID,0.499789,
2002-04-22, 03:18:00,VALID,914.502,VALID,0,VALID,99.5361,VALID,0,VALID,20.1319,VALID,25,VALID,0.617417,
2002-04-22, 03:19:00,VALID,914.498,VALID,0,VALID,99.5323,VALID,0.0169808,VALID,20.1291,VALID,31,VALID,0.534951,
2002-04-22, 03:20:00,VALID,914.499,VALID,0,VALID,99.5348,VALID,0,VALID,20.1488,VALID,27,VALID,0.686632,
2002-04-22, 03:21:00,VALID,914.514,VALID,0,VALID,99.5298,VALID,0.0339617,VALID,20.149,VALID,22,VALID,0.716797,
2002-04-22, 03:22:00,VALID,914.508,VALID,0,VALID,99.5387,VALID,0.0679233,VALID,20.1254,VALID,31,VALID,0.96326,
2002-04-22, 03:23:00,VALID,914.497,VALID,0,VALID,99.5247,VALID,-0.0509425,VALID,20.1008,VALID,27,VALID,0.528722,
2002-04-22, 03:24:00,VALID,914.506,VALID,0,VALID,99.5259,VALID,-0.0169808,VALID,20.121,VALID,19,VALID,0.507196,
2002-04-22, 03:25:00,VALID,914.525,VALID,0,VALID,99.5425,VALID,-0.0679233,VALID,20.1175,VALID,34,VALID,0.137804,
2002-04-22, 03:26:00,VALID,914.541,VALID,0,VALID,99.5298,VALID,-0.0169808,VALID,20.1142,VALID,34,VALID,0.219184,
2002-04-22, 03:27:00,VALID,914.557,VALID,0,VALID,99.5298,VALID,-0.0509425,VALID,20.1013,VALID,29,VALID,0.00950169,
2002-04-22, 03:28:00,VALID,914.554,VALID,0,VALID,99.5374,VALID,-0.0509425,VALID,20.0812,VALID,26,VALID,0.0797335,
2002-04-22, 03:29:00,VALID,914.545,VALID,0,VALID,99.5412,VALID,-0.0679233,VALID,20.111,VALID,18,VALID,0.380345,
2002-04-22, 03:30:00,VALID,914.546,VALID,0,VALID,99.5323,VALID,-0.0679233,VALID,20.0946,VALID,10,VALID,0.479818,
2002-04-22, 03:31:00,VALID,914.528,VALID,0,VALID,99.5399,VALID,-0.0509425,VALID,20.0949,VALID,13,VALID,0.632161,
2002-04-22, 03:32:00,VALID,914.508,VALID,0,VALID,99.5412,VALID,-0.0509425,VALID,20.0886,VALID,13,VALID,0.454392,
2002-04-22, 03:33:00,VALID,914.498,VALID,0,VALID,99.5387,VALID,-0.0509425,VALID,20.0881,VALID,10,VALID,0.491958,
2002-04-22, 03:34:00,VALID,914.498,VALID,0,VALID,99.5374,VALID,-0.0679233,VALID,20.062,VALID,5,VALID,0.467516,
2002-04-22, 03:35:00,VALID,914.495,VALID,0,VALID,99.5399,VALID,-0.101885,VALID,20.0598,VALID,7,VALID,0.453559,